Temp
20 20 20 20 19 18 19 21 22 21 19 20 20 19 17 18 18 16 15 16 17 17 16 17 17 17 17 16 16 16 16 16 16 15 15 15 15 15 15 15 15 14 15 15 15 15 15 15 15
21 20 21 20 18 18 18 22 21 21 20 19 19 19 18 16 15 15 15 16 17 17 17 17 17 17 17 17 17 17 17 16 16 16 16 16 15 15 15 15 15 15 15 15 15 15 15 15 14
21 20 21 17 16 16 19 22 21 22 21 21 20 19 19 16 16 15 16 16 17 17 17 17 17 17 18 18 17 17 17 16 16 16 16 16 16 15 15 15 15 15 15 15 15 15 15 15 15
21 21 20 18 17 19 21 21 21 21 20 20 19 18 18 17 17 17 16 16 17 17 17 17 18 18 18 17 17 16 16 16 16 16 15 15 15 15 15 15 15 15 15 15 15 15 15 15 15
20 20 17 18 19 23 22 22 23 20 19 19 19 18 17 18 17 17 17 17 17 17 17 17 17 17 17 17 16 16 16 15 15 15 15 15 15 15 15 15 14 14 14 14 14 14 14 14 14
20 19 17 17 20 22 22 23 21 19 18 18 18 18 16 17 17 17 17 17 18 18 17 17 17 17 17 17 17 16 16 15 15 15 15 15 15 15 15 14 14 14 14 14 14 14 14 14 14
18 16 17 18 19 20 22 23 21 19 19 19 19 17 17 17 17 17 18 18 17 17 17 17 16 16 16 17 16 16 15 15 15 15 15 15 15 14 14 14 14 13 13 13 13 13 13 13 13
21 18 19 19 21 21 22 23 22 21 19 19 20 17 17 18 17 17 17 17 17 16 16 16 16 16 16 16 16 16 15 15 15 15 15 15 15 14 14 14 13 13 13 13 13 13 12 12 12
21 17 16 18 21 22 22 21 22 21 19 20 20 18 18 18 17 18 17 17 16 16 16 16 16 16 15 15 15 15 15 14 15 15 15 15 14 14 14 14 13 13 13 12 12 12 12 12 12
20 16 19 20 21 21 22 23 22 21 19 17 18 18 18 18 18 17 17 17 16 16 16 16 16 16 15 15 15 15 14 15 14 14 14 15 14 13 13 13 13 13 13 12 12 12 12 12 12
20 19 21 22 22 24 22 22 23 19 17 18 17 18 18 18 18 17 17 18 17 17 16 16 17 16 15 15 15 14 14 14 14 14 14 14 14 14 14 13 13 13 13 13 12 12 12 12 12
21 21 23 23 23 23 21 23 22 22 20 21 20 19 18 18 18 18 18 18 17 17 17 16 17 17 16 15 15 15 14 14 14 14 14 14 13 13 13 13 13 13 12 12 12 12 12 11 11
20 22 23 23 23 24 23 22 22 21 21 20 19 19 19 18 18 18 18 18 17 17 17 17 17 17 17 16 15 15 15 14 14 14 14 14 14 13 13 13 12 12 12 12 11 11 11 11 11
23 22 22 23 23 23 22 22 23 20 22 20 19 19 19 19 19 19 19 18 18 17 17 17 16 16 15 15 15 15 15 14 14 14 14 14 14 14 13 13 12 12 12 11 11 11 11 11 10
23 20 20 22 22 22 23 21 19 21 20 19 19 20 20 20 20 20 20 19 19 18 18 17 16 16 16 17 16 15 15 14 14 14 13 13 13 13 13 12 12 12 12 12 11 11 11 11 11
21 19 19 21 21 23 21 18 20 21 20 19 19 20 20 19 19 20 20 19 19 18 18 17 17 16 16 15 16 15 14 14 14 13 13 13 13 12 12 12 11 11 11 11 11 10 10 9 9
17 18 19 21 20 21 20 19 19 22 22 21 19 18 18 18 18 18 19 19 18 18 17 17 16 15 15 16 15 14 13 13 13 13 13 12 12 11 11 11 11 10 10 10 10 9 9 8 8
18 18 19 19 21 21 19 19 18 21 21 19 17 15 15 16 16 16 16 17 17 16 16 15 15 16 14 13 13 13 13 13 13 12 11 11 11 11 10 10 10 9 9 9 9 8 8 8 7
21 18 18 19 21 21 17 17 18 16 15 14 13 13 13 14 14 15 15 15 14 14 14 13 12 12 12 12 12 12 12 12 12 11 10 10 10 10 9 9 8 8 8 7 7 7 7 6 6
19 18 18 19 20 19 17 16 15 15 14 14 13 13 14 14 14 14 15 14 14 13 12 12 12 12 12 13 13 13 12 12 11 10 10 10 9 9 8 8 8 7 6 6 6 6 6 5 4
17 17 18 19 19 18 16 17 15 15 15 14 14 14 15 15 15 14 14 14 14 14 13 13 13 12 12 12 11 11 11 11 11 11 10 10 9 8 7 7 6 6 6 6 6 5 4 3 3
17 19 19 18 16 17 18 13 16 14 14 14 13 14 14 14 15 14 14 14 14 14 13 13 13 12 12 12 12 11 11 10 10 9 8 8 7 7 6 6 5 5 5 4 3 3 2 2 2
18 19 19 18 16 16 16 13 15 14 13 13 13 13 14 14 14 14 14 14 13 13 12 12 12 12 12 11 11 10 9 9 8 8 7 7 6 6 6 5 5 4 3 2 2 1 2 1 1
19 18 15 15 14 12 16 14 14 13 14 13 13 13 14 14 14 14 13 13 13 12 12 11 11 11 11 10 10 10 9 8 7 7 6 6 6 5 5 4 3 2 1 1 1 0 0 0 -1
16 14 11 12 10 11 15 14 14 15 15 14 13 14 14 14 14 14 14 13 12 12 11 11 11 10 10 10 9 9 8 7 6 6 5 5 4 4 3 2 1 1 0 0 -0 -0 -1 -1 -1
17 15 9 14 11 11 14 14 13 14 15 15 15 15 15 14 14 14 13 12 12 12 11 11 11 10 10 9 9 8 7 6 5 5 5 4 3 2 2 1 1 -0 -1 -1 -1 -1 -2 -2 -2
17 14 15 11 9 8 12 14 15 14 14 15 14 13 13 14 14 13 12 12 11 11 10 10 9 9 9 8 8 6 6 6 5 5 4 3 3 2 2 1 -0 -0 -1 -1 -2 -2 -2 -2 -3
17 16 13 9 12 13 12 13 13 13 13 13 13 14 14 13 12 12 11 11 10 10 9 9 9 8 8 7 7 6 6 6 5 5 4 3 3 2 2 1 0 -1 -1 -2 -2 -2 -3 -3 -3
15 14 13 12 9 9 8 11 13 13 13 13 14 14 13 12 12 10 10 10 10 9 9 9 8 7 7 6 6 6 5 5 4 4 4 3 2 2 2 -0 -1 -1 -2 -2 -2 -3 -3 -3 -3
17 16 13 8 12 6 6 9 13 12 13 14 14 12 11 10 10 10 10 9 9 9 8 7 7 7 6 6 5 5 5 4 4 4 3 2 2 1 1 -1 -2 -2 -2 -2 -3 -3 -3 -4 -4
Height
1524 1525 1526 1527 1535 1534 1535 1524 1515 1518 1522 1521 1517 1518 1528 1529 1530 1547 1545 1549 1551 1554 1557 1559 1560 1561 1562 1562 1563 1564 1565 1565 1566 1566 1566 1566 1566 1568 1568 1568 1569 1568 1567 1567 1564 1565 1564 1564 1564
1523 1526 1526 1525 1536 1545 1537 1514 1517 1515 1523 1521 1521 1522 1522 1536 1533 1541 1546 1550 1553 1554 1557 1559 1561 1562 1562 1563 1563 1564 1564 1566 1566 1566 1566 1566 1567 1567 1568 1568 1568 1567 1567 1567 1564 1564 1564 1563 1564
1524 1526 1525 1528 1537 1546 1536 1517 1519 1521 1523 1514 1525 1529 1530 1539 1540 1544 1549 1551 1553 1555 1557 1560 1562 1562 1562 1563 1563 1564 1564 1566 1567 1567 1567 1568 1567 1566 1568 1567 1567 1566 1567 1568 1565 1565 1564 1564 1564
1524 1525 1525 1532 1533 1523 1516 1511 1508 1519 1524 1522 1524 1530 1538 1541 1539 1543 1549 1553 1555 1558 1560 1561 1562 1563 1563 1564 1564 1565 1566 1567 1568 1567 1568 1568 1567 1566 1567 1566 1567 1567 1567 1568 1566 1565 1564 1564 1564
1522 1524 1529 1533 1525 1512 1510 1509 1506 1519 1525 1526 1521 1536 1538 1542 1543 1545 1550 1554 1557 1559 1561 1563 1564 1565 1565 1565 1565 1565 1566 1567 1568 1569 1569 1569 1568 1567 1566 1567 1568 1569 1567 1567 1566 1565 1564 1564 1564
1523 1525 1537 1543 1527 1517 1511 1514 1512 1518 1524 1528 1528 1533 1543 1544 1545 1549 1553 1556 1559 1560 1562 1563 1565 1565 1565 1565 1566 1566 1567 1568 1568 1568 1568 1568 1567 1567 1567 1566 1567 1569 1568 1567 1565 1564 1563 1563 1563
1523 1529 1534 1532 1531 1532 1515 1514 1517 1520 1523 1527 1528 1537 1546 1548 1548 1552 1555 1558 1560 1562 1564 1564 1566 1565 1566 1567 1567 1567 1568 1568 1568 1568 1569 1568 1569 1566 1566 1566 1566 1568 1568 1566 1565 1563 1563 1562 1562
1521 1524 1528 1524 1524 1528 1519 1515 1519 1521 1526 1528 1528 1538 1543 1547 1550 1554 1558 1560 1561 1562 1563 1565 1566 1567 1568 1568 1568 1570 1570 1569 1569 1569 1570 1568 1567 1568 1566 1566 1566 1568 1567 1566 1564 1563 1562 1562 1561
1519 1527 1534 1528 1520 1523 1519 1519 1521 1524 1526 1528 1530 1532 1539 1546 1551 1554 1558 1560 1560 1562 1564 1566 1567 1568 1569 1569 1570 1571 1572 1571 1571 1571 1569 1568 1567 1567 1567 1566 1566 1568 1566 1565 1564 1563 1562 1561 1561
1516 1528 1518 1510 1512 1518 1516 1517 1520 1524 1526 1530 1532 1539 1544 1546 1549 1553 1556 1557 1557 1560 1563 1565 1566 1567 1567 1569 1571 1571 1573 1571 1571 1571 1568 1568 1568 1567 1566 1567 1566 1567 1566 1564 1562 1561 1560 1559 1558
1515 1520 1511 1511 1511 1511 1513 1517 1520 1523 1530 1528 1534 1538 1543 1545 1549 1553 1554 1552 1555 1559 1561 1562 1565 1566 1568 1567 1571 1572 1573 1573 1572 1571 1571 1568 1568 1567 1566 1567 1567 1567 1565 1563 1561 1560 1558 1557 1556
1514 1511 1510 1512 1514 1514 1514 1518 1519 1520 1524 1526 1530 1535 1541 1545 1548 1549 1549 1551 1555 1556 1558 1560 1563 1563 1566 1569 1569 1572 1572 1572 1571 1571 1570 1568 1568 1566 1566 1567 1566 1565 1563 1561 1560 1558 1557 1555 1553
1510 1511 1513 1513 1515 1515 1517 1517 1519 1521 1524 1529 1533 1536 1538 1541 1544 1546 1546 1551 1554 1555 1557 1560 1561 1564 1565 1568 1569 1569 1572 1572 1569 1570 1569 1569 1568 1567 1566 1566 1564 1564 1561 1559 1558 1557 1556 1553 1551
1508 1510 1512 1515 1516 1518 1518 1520 1519 1523 1524 1530 1532 1534 1535 1538 1540 1541 1543 1548 1551 1554 1556 1562 1566 1567 1569 1568 1569 1568 1569 1570 1570 1571 1568 1568 1567 1566 1565 1564 1563 1562 1560 1558 1556 1554 1552 1550 1548
1507 1513 1513 1515 1516 1518 1518 1522 1524 1523 1527 1529 1531 1531 1533 1535 1538 1538 1540 1545 1548 1550 1554 1558 1561 1567 1569 1565 1564 1566 1568 1569 1568 1568 1568 1567 1566 1565 1564 1563 1562 1560 1558 1555 1553 1550 1547 1544 1542
1512 1519 1529 1518 1518 1517 1519 1534 1523 1524 1526 1528 1529 1530 1532 1537 1541 1542 1543 1545 1547 1549 1553 1555 1558 1562 1565 1565 1563 1564 1567 1569 1567 1567 1567 1566 1565 1564 1562 1561 1559 1557 1554 1551 1549 1546 1542 1539 1536
1522 1533 1529 1522 1516 1517 1522 1528 1521 1523 1524 1525 1530 1533 1537 1538 1540 1542 1542 1542 1544 1549 1552 1556 1559 1561 1563 1562 1561 1563 1567 1567 1566 1566 1565 1565 1564 1562 1560 1558 1555 1552 1549 1546 1543 1541 1537 1534 1530
1531 1530 1524 1527 1519 1518 1526 1525 1520 1523 1525 1528 1532 1535 1535 1537 1542 1544 1543 1545 1548 1551 1554 1555 1560 1560 1560 1559 1562 1564 1566 1565 1564 1562 1561 1561 1560 1558 1557 1554 1551 1547 1544 1541 1539 1537 1534 1530 1525
1514 1520 1523 1521 1517 1518 1529 1529 1527 1525 1528 1531 1535 1537 1542 1542 1548 1546 1547 1549 1552 1554 1556 1557 1560 1560 1560 1562 1563 1563 1563 1562 1561 1560 1560 1558 1556 1554 1552 1550 1546 1543 1540 1538 1535 1531 1528 1524 1520
1517 1523 1528 1523 1520 1524 1531 1536 1533 1529 1532 1531 1534 1539 1540 1546 1548 1550 1551 1553 1556 1558 1561 1561 1563 1564 1563 1564 1564 1563 1562 1562 1561 1558 1557 1555 1553 1552 1549 1546 1542 1539 1536 1533 1529 1526 1524 1521 1517
1528 1530 1529 1530 1526 1526 1532 1542 1541 1540 1538 1541 1541 1541 1541 1543 1546 1550 1552 1553 1556 1557 1559 1560 1560 1560 1561 1562 1562 1562 1562 1561 1560 1557 1555 1553 1551 1548 1545 1541 1538 1535 1532 1527 1524 1521 1519 1516 1515
1531 1523 1524 1527 1534 1543 1529 1568 1549 1547 1545 1545 1545 1543 1542 1544 1548 1551 1553 1554 1555 1556 1556 1557 1558 1558 1559 1558 1558 1557 1557 1556 1554 1554 1552 1550 1547 1543 1540 1537 1534 1530 1526 1522 1519 1517 1516 1514 1512
1526 1520 1523 1524 1533 1536 1539 1556 1552 1549 1550 1548 1547 1546 1547 1547 1548 1550 1552 1554 1556 1556 1556 1556 1556 1556 1556 1555 1554 1553 1552 1551 1549 1548 1546 1543 1541 1537 1533 1530 1526 1523 1520 1518 1516 1514 1512 1509 1508
1518 1520 1528 1531 1540 1563 1540 1547 1557 1552 1546 1549 1551 1549 1550 1550 1551 1552 1553 1554 1555 1556 1556 1556 1555 1555 1554 1553 1551 1550 1548 1547 1546 1545 1543 1539 1536 1533 1528 1525 1522 1520 1517 1515 1512 1509 1507 1505 1504
1523 1535 1564 1564 1573 1570 1538 1546 1551 1541 1543 1545 1549 1552 1552 1552 1553 1554 1554 1555 1555 1556 1556 1556 1555 1554 1552 1551 1549 1547 1545 1544 1542 1540 1538 1535 1532 1528 1525 1521 1518 1516 1514 1511 1509 1507 1504 1501 1499
1528 1535 1567 1560 1577 1568 1543 1556 1556 1545 1543 1547 1549 1552 1554 1554 1554 1554 1556 1556 1556 1556 1556 1555 1554 1551 1550 1548 1546 1544 1542 1541 1539 1536 1533 1529 1526 1523 1520 1517 1514 1511 1509 1507 1505 1502 1499 1497 1494
1530 1543 1535 1559 1569 1578 1562 1556 1551 1548 1548 1549 1552 1552 1555 1555 1555 1556 1557 1558 1558 1557 1556 1555 1552 1550 1548 1546 1544 1541 1539 1538 1536 1533 1529 1526 1522 1519 1516 1511 1509 1506 1504 1502 1500 1497 1495 1493 1490
1527 1530 1552 1562 1570 1565 1563 1556 1556 1553 1549 1550 1550 1551 1554 1556 1556 1557 1558 1557 1556 1555 1554 1552 1550 1548 1546 1543 1541 1540 1538 1535 1531 1528 1525 1521 1518 1514 1512 1508 1505 1503 1500 1498 1495 1493 1491 1489 1487
1537 1540 1543 1550 1567 1576 1586 1570 1545 1545 1546 1546 1549 1551 1554 1556 1557 1557 1555 1554 1554 1553 1551 1549 1547 1546 1544 1541 1539 1537 1534 1531 1528 1525 1521 1517 1513 1508 1506 1503 1500 1496 1495 1492 1490 1488 1486 1484 1482
1530 1536 1544 1570 1560 1578 1582 1571 1546 1542 1544 1546 1550 1553 1556 1556 1556 1555 1555 1554 1552 1550 1548 1547 1546 1544 1542 1539 1536 1533 1529 1526 1523 1519 1515 1512 1508 1505 1500 1496 1497 1493 1490 1489 1487 1484 1481 1479 1476
Wind_Speed
8 4 2 2 2 3 3 4 7 4 5 15 19 18 11 10 2 7 21 18 20 20 19 16 13 12 11 11 10 9 9 9 8 8 7 6 6 5 5 6 7 7 8 9 9 8 8 8 8
2 0 2 1 3 1 4 3 11 10 22 29 26 21 18 6 19 24 23 20 16 20 18 15 13 12 11 11 10 9 8 8 7 7 6 6 5 5 6 6 7 7 8 7 8 8 9 9 8
4 2 2 3 2 5 5 4 14 15 18 18 8 15 9 14 21 16 22 19 19 19 19 17 15 14 13 10 9 8 8 8 8 7 7 7 6 6 6 7 7 7 6 6 6 6 7 8 8
5 1 2 3 7 7 7 5 23 21 19 19 20 8 12 13 23 22 23 18 18 21 20 19 16 13 10 8 7 7 7 7 7 7 6 6 6 7 7 7 7 8 8 8 8 8 9 10 10
3 1 3 2 5 3 4 8 25 10 12 16 24 6 9 18 25 25 19 12 22 24 21 17 13 10 9 9 9 9 8 8 7 7 7 7 7 7 8 8 8 8 8 8 8 8 9 9 9
3 0 3 1 5 5 7 10 27 25 30 25 25 16 12 28 25 20 14 22 22 21 19 16 13 11 10 9 7 9 10 10 9 9 7 6 6 8 9 9 9 8 8 8 8 9 9 8 7
4 3 4 5 7 11 6 12 14 21 15 6 19 10 20 23 20 19 19 21 20 18 16 14 11 11 10 8 9 11 11 11 10 8 7 8 9 10 9 9 10 9 9 8 8 10 11 9 8
3 4 2 3 3 6 6 17 23 17 7 28 24 7 20 28 25 22 18 19 19 14 11 12 11 12 11 10 10 11 11 10 10 8 8 10 10 11 10 10 11 11 10 11 11 14 14 13 11
5 2 3 7 3 14 9 12 23 23 25 6 7 32 34 30 26 20 21 20 17 14 13 9 8 12 13 14 12 11 10 8 7 7 8 9 9 9 9 10 10 8 10 11 12 14 16 18 17
5 3 5 4 10 6 10 22 13 13 20 18 26 33 33 29 24 22 24 22 20 19 16 8 7 11 11 9 7 7 7 6 7 7 6 6 6 6 6 7 7 7 10 10 12 15 17 20 20
6 5 1 7 11 20 11 11 11 19 4 31 36 38 34 31 25 24 23 19 21 18 16 11 8 11 9 8 4 4 4 2 2 3 4 1 2 4 5 5 6 7 9 12 12 14 16 21 22
5 2 10 5 12 15 12 11 6 12 13 26 32 34 33 31 28 24 27 25 26 21 15 14 10 9 10 5 5 6 5 4 3 2 3 4 2 3 3 3 3 5 6 9 12 14 16 20 22
8 4 11 13 11 13 12 10 5 10 23 28 33 31 32 31 25 22 25 25 27 23 19 17 13 10 7 4 3 3 6 6 6 8 7 8 5 5 6 5 5 5 6 9 11 14 18 22 23
10 13 10 8 6 6 6 5 7 13 31 34 33 30 27 26 23 25 28 29 28 26 22 21 13 12 10 7 5 6 10 9 10 13 11 10 9 9 10 9 9 10 11 13 16 18 20 22 23
17 6 5 2 4 3 7 3 6 21 36 37 36 31 28 25 20 22 25 31 29 31 25 25 16 16 5 7 7 6 8 11 11 11 12 13 14 14 16 15 13 14 15 16 18 21 23 27 29
5 5 3 4 5 2 6 6 5 27 34 35 37 34 31 29 27 23 22 22 33 33 29 28 19 18 16 11 10 9 8 11 10 12 11 14 16 18 19 18 16 18 20 22 25 28 31 34 33
5 4 5 2 12 3 3 5 7 24 31 31 26 9 13 12 6 10 11 16 21 28 32 22 18 10 9 7 7 7 10 7 9 10 7 12 15 15 15 17 19 21 23 26 28 30 31 29 30
5 4 4 6 4 3 4 2 6 15 13 9 21 25 28 28 26 26 27 24 23 24 24 20 16 11 8 10 10 12 8 7 6 3 4 7 9 11 14 17 19 22 25 28 30 30 29 32 34
2 3 9 1 0 3 5 5 4 11 27 26 29 36 35 35 29 28 29 28 23 19 15 12 10 11 11 12 10 7 8 4 3 5 4 7 9 10 14 18 20 22 24 23 24 28 33 35 36
5 8 4 5 6 5 4 6 7 8 13 27 32 32 33 27 22 18 15 13 14 15 15 15 14 11 9 6 4 2 1 3 3 4 9 11 14 18 22 24 24 22 22 23 27 31 33 33 34
6 5 2 3 3 4 10 5 7 7 21 20 26 29 27 25 22 18 15 12 9 11 10 9 10 10 7 4 2 3 5 8 11 16 21 24 26 28 27 24 24 26 30 32 32 29 26 24 23
2 1 2 3 4 1 3 3 1 4 8 13 19 27 26 24 21 17 14 12 9 11 11 11 9 9 12 14 15 16 19 19 21 23 22 22 24 25 27 29 32 32 29 24 22 18 18 20 22
3 1 0 1 3 3 3 6 3 7 9 8 15 26 24 20 17 17 13 9 8 8 9 10 11 11 12 15 17 16 15 15 15 16 17 20 21 24 30 33 33 24 24 19 19 20 23 26 23
2 3 7 4 3 3 4 5 5 5 7 6 10 23 22 17 15 11 8 6 6 6 6 4 3 7 10 12 15 18 20 16 14 17 22 26 26 30 34 31 27 25 25 25 24 23 22 23 23
8 5 3 4 4 4 5 5 1 4 9 14 15 19 18 15 11 8 5 3 5 3 1 3 5 8 11 16 17 16 15 15 14 16 20 24 28 27 23 28 27 27 26 23 23 23 24 25 16
2 5 4 3 2 4 5 3 4 6 24 24 20 17 15 13 10 9 9 9 8 4 3 6 11 14 18 20 21 21 19 18 18 23 28 28 27 26 24 22 25 22 23 21 20 19 22 22 23
3 4 4 6 3 3 1 3 3 3 10 14 12 6 13 11 8 10 10 9 5 2 5 7 10 13 16 18 17 15 15 20 25 28 28 27 25 22 30 28 18 19 18 20 21 21 19 19 16
5 2 4 4 2 0 3 4 4 7 6 8 11 14 10 11 15 12 8 6 4 5 6 10 14 17 17 16 16 18 23 29 30 31 32 29 29 29 27 22 20 19 19 19 19 21 20 18 16
4 3 5 4 3 4 2 5 4 7 7 8 12 14 14 15 11 11 10 6 3 6 12 17 13 9 12 17 22 25 25 31 32 31 33 31 30 26 25 18 17 18 20 19 17 15 16 18 21
2 3 4 4 2 1 4 4 3 8 17 17 11 12 15 13 13 10 5 4 9 14 15 12 10 13 18 17 24 29 30 29 28 35 34 34 33 28 21 17 20 19 21 22 20 18 18 20 19
Wind_Direction
324 313 280 272 70 75 283 262 164 144 62 74 98 105 106 61 89 131 143 143 148 150 144 151 147 141 136 128 124 120 116 109 106 97 89 76 64 52 40 31 21 11 4 356 357 350 345 345 341
351 152 261 359 83 78 287 92 94 104 126 102 82 82 58 64 97 129 139 147 151 153 148 149 145 137 127 120 119 119 116 111 105 97 92 83 70 53 37 33 25 18 12 4 6 356 347 345 340
148 189 121 108 183 185 183 187 127 123 156 115 104 74 71 116 116 135 137 140 145 146 146 142 135 128 123 120 118 116 112 108 105 99 84 71 62 57 48 42 37 33 26 15 21 16 15 7 2
140 230 71 80 251 242 184 183 113 107 90 89 112 63 81 129 150 141 131 133 145 138 134 131 130 125 118 110 102 99 102 104 101 99 94 87 76 58 44 41 32 32 29 27 33 25 24 17 15
82 78 50 316 296 31 5 120 119 99 102 100 103 116 92 124 127 125 130 143 145 134 132 127 121 111 103 101 102 105 107 107 107 100 93 82 62 49 44 39 35 28 28 19 19 11 12 10 6
48 62 63 148 321 332 28 109 102 98 107 103 97 102 101 131 130 129 133 143 138 133 128 121 112 103 95 94 101 111 111 111 111 108 105 87 65 57 48 47 35 21 16 8 4 4 359 354 348
141 107 206 196 200 89 0 105 114 122 118 84 121 115 137 143 144 141 140 139 134 128 121 113 105 95 97 107 119 117 115 114 110 106 97 74 58 63 46 40 38 33 20 10 9 11 357 345 336
207 112 254 275 164 60 151 101 109 127 111 131 117 152 153 154 150 145 140 134 130 124 123 115 97 100 89 96 98 101 104 102 101 95 79 69 61 53 54 44 37 24 30 30 25 20 22 13 9
169 23 234 200 193 156 138 99 95 123 139 151 203 153 149 152 151 146 143 141 144 143 139 118 93 110 84 85 88 90 84 84 95 85 70 56 62 52 41 32 29 23 22 21 22 19 15 8 2
136 170 236 218 162 158 133 127 126 115 110 97 120 141 151 157 161 160 156 158 165 159 157 146 131 128 105 102 93 93 97 87 102 78 54 59 55 44 34 29 22 6 11 14 13 9 4 360 354
172 168 269 27 130 128 120 116 132 118 75 137 138 148 155 161 164 167 171 181 178 170 169 174 156 124 112 118 138 148 138 97 70 57 16 54 46 21 16 4 6 4 6 4 357 353 351 347 342
108 171 99 99 145 136 139 142 116 171 170 154 156 157 162 169 174 183 192 191 184 183 192 177 165 139 143 152 156 175 198 240 235 253 320 279 274 331 323 313 330 340 337 340 336 332 329 328 330
110 144 101 94 105 142 126 111 122 162 156 158 157 161 168 176 188 199 203 197 190 193 196 184 174 165 162 170 199 238 227 242 275 278 285 273 249 256 251 251 266 283 288 300 307 308 309 312 319
151 123 127 125 112 103 101 98 110 137 162 160 164 172 179 182 190 200 205 201 198 198 198 187 174 171 172 176 216 234 243 223 240 265 267 267 270 281 280 275 285 297 300 304 307 308 307 312 316
136 83 27 186 154 137 110 22 146 161 167 166 177 184 188 193 191 204 210 207 202 201 199 185 181 178 192 262 227 258 237 234 255 258 270 281 289 291 288 293 295 304 304 303 302 303 304 304 307
79 56 118 267 170 195 129 245 224 165 164 176 187 192 197 198 209 216 227 220 210 203 196 192 192 214 265 232 231 234 243 234 255 258 259 274 280 284 292 294 296 300 303 304 303 308 311 309 308
10 188 205 247 199 134 111 264 235 181 175 184 188 174 188 168 176 195 197 183 182 191 190 199 203 219 154 180 217 190 210 245 268 256 270 257 257 267 283 291 293 295 295 299 302 306 311 311 308
240 235 204 173 192 162 106 5 51 181 173 122 117 106 110 115 109 117 117 120 132 162 187 192 202 210 183 168 174 197 217 238 249 249 212 225 248 259 267 275 281 291 301 305 305 310 311 315 313
238 71 110 140 272 100 125 98 30 96 111 108 105 104 101 103 104 105 106 109 111 111 119 126 121 133 144 172 190 183 163 178 209 202 218 254 265 271 283 294 304 309 311 311 313 313 316 314 311
80 90 31 22 2 90 99 53 25 67 94 119 118 113 112 108 103 99 103 106 110 111 102 97 98 116 127 155 161 190 285 293 312 287 274 288 294 300 306 308 308 308 305 306 308 309 310 310 314
50 95 80 155 311 68 93 39 87 57 99 106 117 120 115 110 107 103 102 99 102 89 72 58 48 44 56 57 20 298 284 281 279 287 300 310 316 316 315 312 312 311 310 309 308 308 311 317 318
74 161 124 79 72 178 102 167 291 113 94 106 125 121 119 116 108 103 98 92 74 58 35 16 11 3 349 337 332 330 327 322 317 321 323 317 317 317 309 309 311 309 310 316 324 328 326 317 309
196 314 319 108 92 58 1 90 148 150 125 131 133 133 130 117 101 102 102 87 70 48 31 16 357 340 330 328 328 323 317 309 303 302 302 304 305 310 308 317 321 327 334 332 327 322 319 316 313
338 357 35 57 76 37 287 137 192 187 163 133 127 136 133 117 107 102 97 68 43 59 50 19 311 304 307 305 305 306 304 298 297 301 306 309 313 316 318 321 331 332 331 322 321 318 314 314 314
45 53 7 25 17 214 309 52 29 218 143 133 132 139 139 129 134 143 156 151 118 110 110 335 315 312 309 308 307 302 300 304 306 309 307 309 315 324 328 330 330 326 328 324 321 317 317 308 302
346 115 141 167 160 267 8 46 322 112 117 126 129 131 129 142 157 160 170 162 158 168 260 313 318 314 306 301 301 303 303 307 315 317 321 322 325 327 326 320 318 321 323 322 317 317 320 315 312
319 58 162 105 13 62 250 37 16 140 140 121 129 139 197 176 142 145 132 125 119 39 343 325 314 311 302 301 297 295 306 315 317 321 320 318 318 319 325 320 319 323 322 321 322 322 323 324 324
97 165 50 8 94 67 334 178 184 196 174 154 150 165 172 135 128 121 108 88 57 21 2 337 324 313 303 293 295 305 314 318 322 325 322 315 312 311 319 312 307 310 312 320 324 324 322 317 316
12 26 61 105 106 161 158 271 246 184 156 147 158 146 132 127 113 110 111 97 18 332 326 328 326 311 308 312 316 315 318 321 319 316 316 307 300 302 310 307 299 300 305 314 316 317 316 313 315
151 143 106 109 209 74 137 266 259 124 131 127 146 115 113 112 115 110 84 350 328 338 340 339 321 319 322 322 323 320 316 317 312 313 312 304 299 296 310 304 291 299 307 312 311 311 313 313 306